Temperature
4 4 4 4 4 4 4 4 4 4 4 4 4 4 4 4 4 4 4 4 4 4 4 4 4 3 3 3 3 3 2 2 2 2 3 3 3 3 3 3 3 3 3
3 3 3 3 4 4 4 4 4 4 4 4 4 4 3 3 3 3 3 3 3 3 3 3 3 3 2 2 2 2 2 2 2 2 2 2 2 3 3 3 3 3 3
3 3 3 3 3 3 3 3 3 3 3 3 3 3 3 3 3 2 2 3 3 2 2 2 2 2 2 2 2 2 2 2 1 1 1 2 2 2 2 2 2 2 2
2 2 2 2 2 2 2 2 2 2 2 2 2 2 2 2 2 2 2 2 2 2 2 1 1 1 1 1 1 1 1 1 1 1 1 1 1 1 1 1 1 2 2
1 2 2 2 2 2 2 2 1 1 1 2 2 1 1 1 1 1 1 1 1 1 1 1 1 1 1 1 1 1 1 1 1 0 0 0 0 1 0 1 1 1 1
1 1 1 1 1 1 1 1 1 1 1 1 1 1 1 1 1 1 1 1 0 0 0 1 0 1 0 0 0 0 0 0 0 0 -0 -0 0 0 0 -0 -0 -0 0
0 0 0 0 0 0 0 0 0 0 0 0 0 0 0 0 0 0 -0 -0 -0 -0 -0 -0 -0 0 -0 0 0 -0 -0 -0 -0 -0 -0 -0 -0 -0 -0 -0 -0 -0 -0
-0 0 -0 -0 -0 -0 -0 -0 -0 -0 -0 -0 -0 -0 -0 0 -0 -1 -1 -1 -1 -1 -1 -0 -0 -0 -0 -0 -0 -0 -0 -0 -1 -1 -1 -1 -1 -1 -1 -1 -1 -1 -1
-0 -0 -0 -1 -1 -1 -0 -1 -1 -1 -1 -1 -1 -1 -1 -1 -1 -1 -1 -1 -1 -1 -1 -1 -1 -1 -1 -1 -1 -1 -1 -1 -1 -1 -1 -1 -1 -1 -2 -2 -2 -2 -2
-1 -1 -1 -1 -1 -1 -1 -1 -1 -1 -1 -1 -1 -1 -1 -1 -1 -2 -2 -2 -2 -1 -1 -1 -1 -1 -1 -1 -1 -1 -1 -1 -1 -1 -1 -2 -2 -2 -2 -2 -2 -3 -2
-1 -1 -1 -1 -1 -1 -1 -2 -2 -2 -2 -2 -2 -2 -2 -2 -2 -2 -2 -2 -2 -2 -2 -2 -2 -2 -2 -2 -2 -2 -2 -2 -2 -2 -2 -2 -2 -2 -2 -3 -3 -3 -3
-2 -2 -2 -2 -2 -2 -2 -2 -2 -2 -2 -2 -2 -2 -2 -2 -2 -2 -3 -3 -3 -3 -2 -2 -2 -2 -2 -2 -2 -2 -2 -3 -3 -3 -3 -3 -3 -3 -3 -3 -3 -3 -3
-2 -2 -2 -2 -2 -2 -2 -2 -3 -3 -3 -3 -3 -3 -3 -3 -3 -3 -3 -3 -3 -3 -3 -3 -3 -3 -3 -3 -3 -3 -3 -3 -3 -3 -3 -3 -3 -3 -3 -3 -3 -4 -4
-2 -3 -3 -3 -3 -3 -3 -3 -3 -3 -3 -3 -3 -3 -3 -3 -3 -3 -4 -4 -4 -4 -4 -3 -4 -4 -4 -3 -3 -3 -3 -3 -4 -4 -4 -4 -4 -4 -4 -4 -4 -4 -4
-3 -3 -3 -3 -3 -3 -3 -4 -4 -4 -4 -4 -4 -4 -4 -4 -4 -4 -4 -4 -4 -4 -4 -4 -4 -4 -4 -4 -4 -4 -4 -4 -4 -5 -5 -5 -4 -5 -5 -5 -5 -5 -5
-3 -3 -3 -3 -4 -4 -4 -4 -4 -4 -4 -4 -4 -4 -4 -4 -4 -5 -5 -5 -5 -5 -5 -5 -5 -5 -5 -5 -5 -5 -5 -5 -5 -5 -5 -5 -5 -5 -5 -5 -5 -5 -5
-3 -3 -4 -4 -4 -4 -4 -4 -4 -4 -4 -4 -4 -4 -4 -5 -5 -5 -5 -5 -5 -5 -5 -5 -5 -5 -5 -6 -6 -5 -5 -5 -5 -5 -5 -5 -5 -5 -5 -5 -6 -6 -6
-4 -4 -4 -4 -4 -5 -5 -5 -5 -5 -4 -4 -5 -5 -5 -5 -5 -5 -5 -5 -5 -5 -6 -6 -6 -6 -6 -6 -6 -6 -6 -6 -6 -6 -6 -6 -6 -6 -6 -6 -6 -6 -6
-4 -4 -4 -4 -5 -5 -5 -5 -5 -5 -5 -5 -5 -5 -5 -5 -5 -5 -5 -6 -6 -6 -6 -6 -6 -6 -6 -6 -6 -6 -6 -6 -6 -6 -6 -6 -6 -6 -6 -6 -6 -7 -7
-4 -4 -5 -5 -5 -5 -5 -6 -6 -6 -6 -6 -6 -6 -5 -5 -6 -6 -6 -6 -6 -6 -6 -6 -6 -7 -7 -7 -7 -7 -7 -6 -6 -6 -6 -6 -6 -7 -7 -7 -7 -7 -7
-5 -5 -5 -5 -5 -6 -6 -6 -6 -6 -6 -6 -6 -6 -6 -6 -6 -6 -6 -7 -7 -7 -7 -7 -7 -7 -7 -7 -7 -7 -7 -7 -7 -7 -7 -7 -7 -7 -7 -7 -7 -7 -7
-5 -5 -5 -6 -6 -6 -6 -6 -6 -6 -6 -6 -6 -6 -7 -7 -7 -7 -7 -7 -7 -7 -7 -7 -7 -7 -7 -7 -7 -7 -7 -7 -7 -7 -7 -7 -7 -7 -7 -7 -7 -7 -7
-5 -5 -5 -6 -6 -6 -6 -6 -7 -7 -7 -7 -7 -7 -7 -7 -7 -7 -7 -7 -7 -7 -7 -7 -7 -7 -7 -7 -7 -7 -7 -7 -7 -7 -7 -7 -7 -7 -7 -7 -8 -8 -8
-5 -5 -6 -6 -6 -6 -6 -7 -7 -7 -7 -7 -7 -7 -7 -7 -7 -7 -7 -7 -7 -7 -7 -7 -7 -7 -7 -7 -7 -7 -7 -7 -7 -7 -7 -7 -7 -7 -7 -7 -8 -8 -8
-6 -6 -6 -6 -6 -6 -7 -7 -7 -7 -7 -7 -7 -7 -7 -7 -7 -7 -7 -7 -7 -7 -7 -7 -7 -7 -8 -8 -8 -8 -7 -7 -7 -8 -8 -7 -7 -7 -8 -8 -8 -8 -8
-6 -6 -6 -7 -7 -7 -7 -7 -7 -7 -7 -7 -7 -7 -7 -7 -7 -7 -8 -8 -8 -8 -8 -8 -8 -8 -8 -8 -8 -8 -8 -7 -8 -8 -8 -8 -8 -8 -8 -8 -8 -8 -8
Wind_Speed
2 2 1 1 1 0 1 2 2 2 2 2 2 2 2 2 2 2 2 2 2 2 2 3 3 3 3 3 3 3 4 4 7 6 4 4 4 4 5 6 7 7 8
2 2 2 2 1 1 2 2 2 2 2 2 2 3 3 3 3 3 4 3 3 3 3 3 4 3 4 3 3 4 4 4 5 7 5 4 4 4 4 4 5 6 7
2 2 3 2 2 2 3 3 3 3 3 2 2 3 4 4 4 4 4 4 4 4 4 4 4 4 5 4 4 4 4 4 4 5 6 4 4 3 4 4 4 4 7
2 2 3 3 3 3 3 3 3 3 3 3 3 4 4 4 4 4 4 4 4 4 4 5 5 5 5 5 5 5 4 4 4 5 5 4 4 3 2 4 5 4 5
2 3 4 4 3 3 3 3 3 3 4 3 3 3 3 4 4 5 4 4 4 4 4 5 5 6 7 6 5 5 5 5 4 5 5 4 3 3 3 3 5 5 5
3 4 4 3 3 3 3 3 3 3 3 3 4 4 4 4 7 8 5 4 4 4 5 5 5 6 7 9 10 9 8 6 6 5 5 6 6 5 4 4 4 4 4
4 4 4 4 4 4 4 3 4 4 3 4 4 4 5 6 8 8 7 4 4 5 5 5 5 5 6 5 7 9 8 9 9 7 7 7 6 5 5 5 5 5 6
4 4 4 4 4 4 4 4 4 4 4 4 5 5 5 6 8 8 8 4 4 5 5 5 5 5 5 5 5 5 6 6 7 5 6 6 6 6 6 6 6 6 5
4 5 5 4 5 4 4 5 4 4 4 4 4 5 5 7 8 8 7 3 4 5 5 5 5 5 8 8 5 5 6 5 6 7 8 8 9 8 5 3 3 4 5
5 5 5 4 5 5 5 5 4 4 4 4 5 5 6 6 8 8 6 3 3 4 4 5 7 8 9 9 5 4 6 5 4 4 5 6 5 5 6 4 4 4 4
4 4 4 4 5 5 4 4 4 4 4 4 5 5 5 6 7 8 7 3 3 4 4 4 5 9 10 9 7 5 7 6 3 4 4 3 3 3 3 4 4 4 5
4 4 5 4 4 4 4 4 4 4 4 4 4 5 4 5 5 6 7 6 5 4 5 4 5 9 9 9 7 7 8 6 3 3 3 4 3 4 4 4 4 5 5
3 4 4 4 4 3 4 4 4 3 3 4 4 4 4 3 4 7 7 7 7 4 4 7 8 9 8 6 7 8 6 3 3 4 5 4 4 4 3 3 3 3 3
4 4 4 3 3 3 3 3 4 4 4 4 4 4 4 4 4 4 4 4 5 5 4 6 8 8 6 6 6 5 3 3 3 4 4 4 3 3 3 3 3 3 3
4 4 4 3 3 3 3 4 4 5 5 5 5 5 5 5 6 7 5 4 3 4 3 2 2 3 3 3 3 3 3 3 4 3 3 4 3 3 3 2 2 2 3
4 4 3 3 3 3 3 4 6 6 9 9 8 8 6 8 9 9 9 8 8 6 3 2 3 3 4 4 4 4 3 3 3 4 4 4 4 4 4 3 2 3 4
5 4 3 3 3 3 3 4 5 5 7 7 8 8 8 8 8 8 8 7 6 4 3 3 3 4 4 4 4 4 4 4 4 4 4 4 4 4 4 3 3 3 4
5 5 4 3 3 3 4 4 4 4 5 4 6 7 7 7 7 6 5 3 2 2 2 3 4 4 4 4 4 4 4 4 4 4 4 4 4 4 4 4 4 4 4
4 3 3 3 3 4 4 4 4 4 4 4 4 4 6 6 5 4 2 1 2 3 3 3 4 4 4 4 4 4 4 4 4 4 4 4 4 4 4 4 4 6 5
4 5 4 3 3 3 3 3 4 4 4 4 4 4 3 3 2 2 2 2 3 3 4 4 4 4 4 4 4 4 4 4 4 4 4 4 4 4 4 5 4 4 4
3 4 5 4 3 3 3 3 3 3 4 4 4 5 5 3 3 3 3 3 3 3 4 4 4 4 4 4 4 5 5 5 5 5 4 4 4 4 4 4 4 4 4
3 3 3 3 3 3 3 3 3 3 4 4 4 4 6 3 3 3 3 3 3 3 3 3 4 4 4 4 4 5 5 5 5 5 4 4 4 4 4 4 4 4 4
3 3 3 3 2 4 3 2 2 3 3 3 4 4 3 3 3 3 4 4 3 3 3 3 4 4 4 5 5 5 5 5 5 5 4 4 4 4 4 4 5 4 4
3 3 3 3 3 3 3 3 3 3 3 3 3 3 3 3 3 4 4 3 3 3 4 4 4 5 6 6 5 6 6 6 6 5 5 4 4 4 4 4 4 5 5
3 3 3 3 3 3 3 3 3 3 3 3 3 3 3 3 4 4 3 3 3 4 4 5 4 5 6 7 6 6 7 7 7 6 5 4 4 4 4 4 4 4 4
2 3 3 3 3 3 3 3 3 3 3 3 3 3 3 3 4 3 3 3 3 4 4 4 5 6 6 6 7 7 7 7 7 6 4 3 4 4 4 3 4 4 3
Wind_Direction
352 351 337 304 304 292 260 249 240 241 231 223 230 235 242 250 256 245 244 243 243 258 268 258 255 253 245 242 238 236 238 236 254 271 267 273 271 280 295 292 289 285 282
333 336 320 297 303 288 273 267 255 249 246 239 236 238 245 249 242 235 239 236 237 247 260 262 264 262 252 249 246 245 244 241 246 269 277 275 271 276 280 285 292 289 281
328 324 321 302 285 278 277 277 269 257 254 250 233 233 240 246 243 240 235 235 239 242 244 247 255 256 256 253 248 248 251 255 248 257 271 272 274 282 287 290 290 284 286
315 307 299 292 273 271 277 275 272 265 252 244 241 241 241 245 245 240 236 237 244 247 245 243 247 247 250 254 251 245 249 254 254 255 265 272 273 280 274 282 291 283 286
308 301 291 294 286 282 282 276 272 268 261 246 242 248 247 244 247 243 230 234 241 251 254 252 253 259 261 260 261 249 243 246 249 255 262 272 276 287 275 269 276 287 284
285 284 290 296 295 283 280 280 277 270 263 253 247 245 247 256 268 264 253 226 233 244 256 262 268 266 273 274 273 267 257 248 246 247 259 257 261 263 267 272 277 288 282
280 283 288 288 288 280 281 278 274 268 262 257 254 247 248 257 269 269 266 240 231 240 248 257 271 273 279 272 275 278 273 267 259 252 251 253 259 257 256 264 263 267 265
276 280 279 280 284 280 275 271 269 265 260 257 259 253 252 262 271 269 270 248 239 242 245 246 255 264 273 277 270 272 269 267 264 255 251 258 262 260 251 254 261 271 275
269 272 275 272 276 275 274 273 274 267 266 259 256 250 250 262 269 269 269 239 246 250 252 252 257 259 273 283 279 274 277 279 281 273 270 270 272 273 274 269 268 278 278
269 272 271 266 268 266 266 270 273 268 263 265 261 252 250 257 267 269 269 238 251 260 262 258 263 269 273 277 263 258 269 275 281 291 289 288 283 278 277 256 252 269 282
272 276 272 268 265 261 265 266 268 270 267 264 264 261 254 260 266 267 268 249 244 257 264 266 266 274 277 278 277 259 267 278 271 267 271 278 279 273 270 259 247 250 259
270 275 276 275 273 271 266 270 266 262 260 262 266 269 264 264 269 271 274 272 270 259 263 266 271 281 284 285 284 279 282 285 276 270 268 269 270 272 274 268 263 258 254
267 272 277 280 279 275 264 267 267 256 255 261 262 267 274 270 268 274 275 280 281 278 272 279 284 287 290 286 282 284 284 273 269 269 266 266 263 267 271 278 281 282 283
254 263 268 273 279 278 272 261 256 254 253 256 257 262 268 267 261 259 255 264 273 277 280 280 286 289 291 288 288 289 281 265 265 260 266 269 272 272 273 275 278 282 288
250 254 263 264 262 270 272 261 258 250 251 253 247 248 254 258 263 272 270 258 256 258 274 268 266 278 282 287 291 289 281 276 275 271 269 273 274 271 273 274 268 275 273
246 249 252 258 263 268 276 286 283 277 281 277 272 266 258 263 275 276 278 281 280 275 273 255 262 266 269 277 281 285 280 273 270 269 266 264 263 260 266 268 264 259 265
235 244 249 252 257 266 274 281 293 299 299 298 291 284 277 277 279 279 278 280 275 269 258 256 262 267 270 271 271 274 277 273 269 266 266 264 261 258 259 260 257 262 264
234 245 248 243 248 256 262 268 273 282 292 298 299 297 297 289 284 286 283 281 269 263 254 256 263 268 270 270 270 272 275 277 270 264 262 261 258 257 258 256 252 253 260
231 236 238 239 244 252 260 269 273 274 278 290 294 300 304 299 294 289 281 244 251 261 261 260 262 265 266 266 268 270 269 269 270 267 263 260 257 255 256 253 252 258 261
235 251 252 245 243 250 257 265 272 277 282 286 285 285 295 297 279 279 269 255 251 258 259 262 264 265 264 263 265 266 268 269 267 265 265 263 259 254 255 259 256 255 255
236 249 256 255 244 246 251 256 262 267 269 273 277 283 291 271 264 268 268 262 259 261 262 263 264 265 264 263 261 262 264 267 267 265 263 261 259 255 254 254 255 253 252
227 234 237 237 241 244 248 247 253 264 267 271 280 287 298 290 272 273 271 268 266 264 264 266 266 264 261 260 259 260 262 264 266 266 261 258 258 253 249 248 251 251 246
220 229 240 243 244 258 265 252 251 260 266 271 276 280 284 280 275 274 274 272 273 273 270 267 269 271 270 265 258 255 257 259 261 258 252 253 251 248 245 243 244 251 248
222 229 236 244 247 248 252 255 256 259 261 265 269 274 278 277 275 275 276 276 276 276 275 270 268 269 273 274 267 263 257 255 254 246 242 242 246 248 244 244 245 247 247
219 230 240 244 246 251 255 256 259 262 263 267 269 272 275 276 275 276 276 275 276 277 277 277 274 272 273 276 275 271 268 267 263 250 232 231 235 235 237 241 244 249 249
232 235 241 245 246 253 255 258 264 268 270 272 269 268 269 268 269 273 276 277 279 279 279 280 276 276 277 276 275 275 275 272 265 259 229 219 224 228 231 237 241 240 236
Height
1481 1481 1481 1481 1481 1481 1481 1480 1480 1480 1480 1480 1480 1481 1481 1481 1481 1482 1482 1482 1482 1482 1482 1482 1482 1482 1482 1482 1482 1482 1482 1482 1479 1478 1478 1478 1477 1477 1476 1475 1474 1473 1472
1478 1478 1477 1478 1478 1478 1477 1477 1477 1477 1477 1477 1477 1477 1477 1477 1478 1478 1478 1478 1478 1477 1477 1477 1477 1477 1477 1477 1477 1477 1476 1476 1475 1473 1473 1472 1472 1471 1471 1470 1469 1468 1467
1475 1475 1474 1474 1474 1473 1473 1473 1473 1473 1473 1473 1473 1473 1473 1473 1473 1474 1474 1474 1473 1473 1473 1472 1472 1472 1471 1472 1472 1472 1471 1471 1470 1469 1468 1467 1467 1466 1465 1464 1464 1462 1462
1472 1471 1470 1470 1470 1470 1469 1469 1469 1469 1469 1468 1468 1468 1468 1468 1469 1469 1469 1469 1469 1468 1468 1468 1468 1467 1467 1467 1467 1467 1466 1466 1465 1464 1463 1462 1462 1461 1460 1459 1457 1457 1456
1468 1467 1466 1466 1466 1466 1465 1465 1465 1465 1464 1464 1463 1463 1463 1464 1464 1465 1465 1464 1464 1463 1463 1463 1463 1462 1462 1462 1462 1461 1461 1460 1460 1459 1458 1457 1456 1456 1455 1454 1453 1451 1450
1465 1464 1463 1462 1461 1461 1461 1460 1460 1460 1459 1459 1458 1458 1458 1459 1459 1460 1460 1459 1459 1459 1458 1458 1458 1458 1458 1457 1457 1456 1456 1456 1454 1454 1453 1452 1451 1451 1450 1449 1448 1446 1444
1461 1460 1459 1458 1457 1456 1456 1455 1455 1454 1454 1454 1453 1453 1453 1454 1454 1454 1455 1454 1454 1454 1454 1453 1453 1453 1453 1452 1451 1451 1451 1450 1450 1450 1448 1447 1447 1446 1445 1444 1443 1442 1440
1457 1456 1455 1454 1452 1452 1451 1450 1450 1449 1449 1448 1448 1448 1448 1448 1449 1449 1450 1449 1449 1449 1449 1448 1448 1448 1447 1447 1446 1445 1445 1444 1444 1444 1443 1443 1442 1441 1441 1440 1438 1437 1436
1453 1452 1451 1449 1448 1447 1446 1446 1445 1445 1444 1443 1443 1443 1443 1443 1444 1445 1445 1444 1444 1444 1444 1444 1443 1443 1442 1442 1441 1440 1439 1439 1439 1438 1438 1437 1437 1436 1436 1435 1433 1432 1429
1448 1447 1446 1445 1444 1443 1442 1441 1440 1440 1439 1439 1439 1439 1439 1439 1439 1440 1440 1439 1439 1439 1439 1438 1438 1438 1438 1437 1436 1435 1434 1433 1433 1432 1432 1432 1431 1431 1430 1429 1428 1427 1424
1444 1443 1442 1441 1440 1439 1438 1437 1436 1435 1435 1434 1434 1434 1434 1434 1434 1435 1435 1435 1434 1434 1433 1433 1433 1433 1432 1432 1431 1430 1429 1428 1427 1427 1426 1426 1425 1425 1424 1424 1423 1422 1420
1440 1439 1438 1436 1435 1435 1434 1433 1432 1431 1431 1430 1430 1430 1430 1430 1430 1429 1430 1430 1430 1429 1428 1428 1428 1428 1427 1426 1425 1425 1424 1423 1422 1421 1421 1420 1419 1418 1418 1418 1417 1416 1415
1435 1434 1433 1432 1431 1430 1429 1428 1428 1428 1427 1426 1426 1425 1425 1425 1425 1425 1425 1425 1425 1424 1423 1423 1423 1422 1422 1421 1420 1419 1419 1418 1417 1416 1415 1414 1414 1413 1413 1412 1411 1411 1410
1431 1430 1429 1428 1427 1426 1426 1425 1424 1424 1423 1422 1422 1421 1421 1421 1420 1420 1420 1420 1420 1419 1419 1418 1418 1417 1417 1416 1415 1414 1413 1413 1412 1411 1410 1409 1409 1408 1408 1407 1406 1405 1405
1427 1426 1426 1424 1423 1422 1422 1421 1420 1420 1419 1418 1418 1417 1416 1415 1416 1416 1416 1415 1415 1415 1414 1413 1413 1412 1411 1410 1409 1409 1408 1407 1407 1406 1405 1405 1404 1404 1403 1402 1402 1401 1400
1423 1422 1422 1421 1420 1419 1418 1417 1417 1416 1415 1415 1414 1413 1412 1412 1412 1411 1411 1411 1411 1411 1410 1408 1408 1407 1406 1406 1405 1404 1403 1403 1402 1402 1401 1400 1400 1399 1399 1398 1397 1397 1395
1419 1418 1418 1417 1416 1415 1414 1413 1412 1412 1412 1411 1410 1409 1408 1408 1407 1407 1406 1406 1406 1406 1405 1404 1403 1403 1402 1401 1400 1399 1399 1398 1398 1397 1396 1396 1396 1395 1394 1393 1393 1392 1391
1415 1414 1414 1413 1412 1411 1411 1410 1409 1408 1407 1406 1406 1405 1404 1404 1403 1403 1402 1402 1401 1401 1400 1399 1399 1398 1397 1397 1396 1395 1394 1394 1393 1393 1392 1391 1391 1390 1390 1389 1388 1387 1387
1411 1410 1410 1409 1409 1408 1407 1406 1405 1404 1403 1402 1402 1401 1401 1400 1399 1399 1398 1397 1396 1396 1396 1395 1395 1394 1393 1392 1392 1391 1390 1389 1389 1388 1387 1387 1386 1386 1385 1384 1383 1383 1382
1407 1407 1406 1405 1405 1404 1403 1402 1401 1401 1400 1399 1398 1397 1397 1396 1395 1395 1394 1393 1392 1392 1391 1391 1390 1390 1389 1388 1387 1386 1385 1385 1384 1383 1383 1382 1381 1381 1380 1379 1379 1378 1377
1403 1403 1402 1402 1401 1400 1400 1399 1398 1397 1396 1395 1395 1394 1393 1392 1391 1391 1390 1389 1388 1387 1387 1387 1386 1385 1384 1384 1383 1382 1381 1380 1379 1379 1378 1377 1377 1376 1375 1375 1374 1374 1373
1399 1399 1398 1398 1397 1397 1396 1396 1395 1394 1393 1392 1391 1391 1390 1389 1388 1387 1386 1386 1385 1384 1383 1383 1382 1381 1380 1379 1378 1377 1376 1375 1375 1374 1374 1373 1372 1372 1371 1370 1370 1369 1368
1395 1395 1395 1394 1394 1393 1393 1392 1392 1391 1390 1389 1388 1387 1386 1385 1384 1384 1383 1382 1381 1380 1380 1379 1378 1377 1376 1375 1374 1373 1372 1371 1371 1370 1369 1369 1368 1367 1366 1366 1365 1365 1364
1392 1391 1391 1391 1390 1390 1389 1389 1388 1388 1387 1386 1385 1384 1383 1382 1381 1380 1379 1378 1378 1377 1376 1375 1374 1373 1372 1372 1370 1369 1368 1368 1367 1366 1365 1364 1363 1363 1362 1362 1361 1360 1360
1389 1388 1388 1387 1387 1386 1386 1386 1385 1385 1384 1383 1382 1381 1380 1379 1378 1377 1376 1375 1374 1373 1372 1371 1370 1369 1369 1368 1367 1365 1364 1364 1363 1362 1361 1360 1359 1359 1358 1357 1357 1356 1356
1385 1385 1385 1384 1384 1383 1383 1382 1382 1381 1380 1380 1379 1378 1377 1375 1374 1373 1373 1372 1371 1370 1369 1368 1367 1366 1365 1364 1363 1362 1361 1360 1359 1358 1357 1356 1356 1355 1354 1353 1353 1353 1352